IWY411 MDSD-TUPJ

Flight info

Callsign IWY411
Flight time 1h 14m
Altitude 17000
Route MELLA2J MELLA G633 DDP RTE2 MALIE STT DCT
Aircraft AT76/M-SDFGHIRWY/LB1

Departure

Time 2026-05-05 17:47
Airport Las Américas International Airport (MDSD)

Arrival

Time 2026-05-05 19:01
Airport Terrance B. Lettsome International Airport (TUPJ)
Time Latitude Longitude Altitude Speed Heading
2026-05-05 17:20 18.42949 -69.67438 61 ft 0 kts 250°
2026-05-05 17:40 18.42957 -69.67413 55 ft 6 kts 250°
2026-05-05 17:40 18.42959 -69.67384 61 ft 0 kts 332°
2026-05-05 17:40 18.42970 -69.67390 57 ft 6 kts 332°
2026-05-05 17:40 18.43035 -69.67427 56 ft 13 kts 332°
2026-05-05 17:41 18.43120 -69.67463 55 ft 14 kts 340°
2026-05-05 17:41 18.43212 -69.67495 56 ft 14 kts 342°
2026-05-05 17:41 18.43307 -69.67529 54 ft 15 kts 341°
2026-05-05 17:41 18.43404 -69.67561 58 ft 15 kts 348°
2026-05-05 17:42 18.43504 -69.67576 55 ft 15 kts 352°
2026-05-05 17:42 18.43604 -69.67596 55 ft 15 kts 343°
2026-05-05 17:42 18.43701 -69.67634 56 ft 15 kts 339°
2026-05-05 17:42 18.43798 -69.67674 53 ft 15 kts 339°
2026-05-05 17:43 18.43896 -69.67713 55 ft 15 kts 338°
2026-05-05 17:43 18.43994 -69.67753 49 ft 15 kts 339°
2026-05-05 17:43 18.44093 -69.67790 54 ft 15 kts 354°
2026-05-05 17:43 18.44151 -69.67722 50 ft 12 kts 69°
2026-05-05 17:44 18.44180 -69.67642 53 ft 11 kts 69°
2026-05-05 17:44 18.44212 -69.67570 50 ft 10 kts 45°
2026-05-05 17:44 18.44278 -69.67535 51 ft 11 kts 25°
2026-05-05 17:44 18.44301 -69.67523 53 ft 0 kts 25°
2026-05-05 17:46 18.44321 -69.67513 52 ft 14 kts 25°
2026-05-05 17:46 18.44364 -69.67430 51 ft 13 kts 99°
2026-05-05 17:47 18.44261 -69.67371 53 ft 40 kts 161°
2026-05-05 17:47 18.43806 -69.67204 55 ft 99 kts 160°
2026-05-05 17:47 18.43026 -69.66906 260 ft 129 kts 163°
2026-05-05 17:47 18.42160 -69.66621 891 ft 128 kts 162°
2026-05-05 17:48 18.41328 -69.66352 1547 ft 128 kts 162°
2026-05-05 17:48 18.40459 -69.66072 2113 ft 130 kts 161°
2026-05-05 17:48 18.39589 -69.65794 2671 ft 131 kts 162°
2026-05-05 17:48 18.38685 -69.65519 3110 ft 143 kts 161°
2026-05-05 17:49 18.37685 -69.65236 3559 ft 151 kts 164°
2026-05-05 17:49 18.36741 -69.64810 4066 ft 153 kts 135°
2026-05-05 17:49 18.36317 -69.63790 4517 ft 154 kts 98°
2026-05-05 17:49 18.36218 -69.62656 4976 ft 160 kts 99°
2026-05-05 17:50 18.36034 -69.61441 5241 ft 175 kts 105°
2026-05-05 17:50 18.35686 -69.60165 5502 ft 187 kts 108°
2026-05-05 17:50 18.35302 -69.58856 5868 ft 192 kts 108°
2026-05-05 17:50 18.34911 -69.57510 6305 ft 193 kts 107°
2026-05-05 17:51 18.34544 -69.56162 6769 ft 190 kts 106°
2026-05-05 17:51 18.34203 -69.54833 7217 ft 186 kts 105°
2026-05-05 17:51 18.33884 -69.53534 7598 ft 183 kts 106°
2026-05-05 17:51 18.33562 -69.52242 7922 ft 183 kts 106°
2026-05-05 17:52 18.33225 -69.50943 8215 ft 184 kts 107°
2026-05-05 17:52 18.32881 -69.49637 8481 ft 187 kts 107°
2026-05-05 17:52 18.32541 -69.48317 8768 ft 187 kts 107°
2026-05-05 17:52 18.32184 -69.46999 9035 ft 188 kts 107°
2026-05-05 17:53 18.31820 -69.45677 9277 ft 189 kts 108°
2026-05-05 17:53 18.31451 -69.44344 9506 ft 191 kts 108°
2026-05-05 17:53 18.31083 -69.42998 9788 ft 191 kts 107°
2026-05-05 17:53 18.30718 -69.41649 10030 ft 193 kts 106°
2026-05-05 17:54 18.30554 -69.40241 10280 ft 195 kts 94°
2026-05-05 17:54 18.30523 -69.38807 10492 ft 198 kts 93°
2026-05-05 17:54 18.30496 -69.37360 10752 ft 197 kts 94°
2026-05-05 17:54 18.30446 -69.35910 10972 ft 199 kts 95°
2026-05-05 17:55 18.30363 -69.34469 11181 ft 201 kts 95°
2026-05-05 17:55 18.30267 -69.32973 11422 ft 202 kts 96°
2026-05-05 17:55 18.30174 -69.31518 11671 ft 202 kts 96°
2026-05-05 17:55 18.30079 -69.30042 11884 ft 203 kts 96°
2026-05-05 17:56 18.29982 -69.28547 12083 ft 205 kts 95°
2026-05-05 17:56 18.29889 -69.27045 12298 ft 207 kts 95°
2026-05-05 17:56 18.29798 -69.25533 12546 ft 207 kts 95°
2026-05-05 17:56 18.29702 -69.24014 12744 ft 209 kts 95°
2026-05-05 17:57 18.29610 -69.22490 12968 ft 209 kts 95°
2026-05-05 17:57 18.29516 -69.20947 13134 ft 212 kts 95°
2026-05-05 17:57 18.29421 -69.19398 13346 ft 213 kts 95°
2026-05-05 17:57 18.29326 -69.17843 13549 ft 213 kts 95°
2026-05-05 17:58 18.29225 -69.16283 13743 ft 214 kts 95°
2026-05-05 17:58 18.29127 -69.14712 13915 ft 216 kts 95°
2026-05-05 17:58 18.29035 -69.13136 14098 ft 216 kts 95°
2026-05-05 17:58 18.28936 -69.11550 14268 ft 218 kts 95°
2026-05-05 17:59 18.28835 -69.09960 14428 ft 219 kts 95°
2026-05-05 17:59 18.28768 -69.08894 14537 ft 221 kts 95°
2026-05-05 17:59 18.28668 -69.07275 14745 ft 222 kts 95°
2026-05-05 17:59 18.28564 -69.05658 14955 ft 221 kts 95°
2026-05-05 18:00 18.28460 -69.04040 15141 ft 223 kts 95°
2026-05-05 18:00 18.28358 -69.02406 15311 ft 224 kts 95°
2026-05-05 18:00 18.28222 -69.00236 15544 ft 225 kts 95°
2026-05-05 18:00 18.28120 -68.98588 15715 ft 226 kts 95°
2026-05-05 18:01 18.28051 -68.97474 15819 ft 227 kts 95°
2026-05-05 18:01 18.27946 -68.95809 15945 ft 229 kts 95°
2026-05-05 18:01 18.27839 -68.94136 16126 ft 229 kts 95°
2026-05-05 18:01 18.27733 -68.92465 16278 ft 230 kts 95°
2026-05-05 18:02 18.27630 -68.90808 16417 ft 231 kts 95°
2026-05-05 18:02 18.27523 -68.89118 16548 ft 232 kts 95°
2026-05-05 18:02 18.27414 -68.87427 16702 ft 232 kts 95°
2026-05-05 18:02 18.27309 -68.85727 16860 ft 234 kts 95°
2026-05-05 18:03 18.27201 -68.84005 16934 ft 239 kts 95°
2026-05-05 18:03 18.27085 -68.82240 16958 ft 245 kts 95°
2026-05-05 18:03 18.26966 -68.80436 16987 ft 250 kts 95°
2026-05-05 18:03 18.26850 -68.78590 16993 ft 255 kts 95°
2026-05-05 18:04 18.26735 -68.76718 16997 ft 258 kts 95°
2026-05-05 18:04 18.26615 -68.74823 16997 ft 261 kts 95°
2026-05-05 18:04 18.26490 -68.72913 16999 ft 263 kts 95°
2026-05-05 18:04 18.26365 -68.70986 16998 ft 265 kts 95°
2026-05-05 18:05 18.26238 -68.69049 16996 ft 266 kts 95°
2026-05-05 18:05 18.26114 -68.67104 16996 ft 267 kts 95°
2026-05-05 18:05 18.25990 -68.65151 16997 ft 268 kts 95°
2026-05-05 18:05 18.25862 -68.63195 16997 ft 268 kts 95°
2026-05-05 18:06 18.25733 -68.61238 16997 ft 268 kts 95°
2026-05-05 18:06 18.25649 -68.59942 16997 ft 269 kts 95°
2026-05-05 18:06 18.25481 -68.57315 16999 ft 269 kts 95°
2026-05-05 18:06 18.25353 -68.55352 16998 ft 269 kts 95°
2026-05-05 18:07 18.25227 -68.53387 16997 ft 269 kts 95°
2026-05-05 18:07 18.25101 -68.51419 16997 ft 270 kts 95°
2026-05-05 18:07 18.24971 -68.49452 16997 ft 270 kts 95°
2026-05-05 18:07 18.24839 -68.47482 16998 ft 269 kts 95°
2026-05-05 18:08 18.24707 -68.45517 16998 ft 269 kts 95°
2026-05-05 18:08 18.24574 -68.43550 16998 ft 269 kts 95°
2026-05-05 18:08 18.24449 -68.41609 16998 ft 269 kts 95°
2026-05-05 18:08 18.24324 -68.39641 16998 ft 269 kts 95°
2026-05-05 18:09 18.24197 -68.37678 16998 ft 269 kts 95°
2026-05-05 18:09 18.24068 -68.35716 16999 ft 269 kts 95°
2026-05-05 18:09 18.23935 -68.33751 16998 ft 269 kts 95°
2026-05-05 18:09 18.23801 -68.31789 16998 ft 269 kts 95°
2026-05-05 18:10 18.23668 -68.29823 16998 ft 270 kts 95°
2026-05-05 18:10 18.23541 -68.27854 16997 ft 270 kts 95°
2026-05-05 18:10 18.23413 -68.25879 16982 ft 271 kts 95°
2026-05-05 18:10 18.23281 -68.23907 16979 ft 270 kts 95°
2026-05-05 18:11 18.23148 -68.21937 16978 ft 270 kts 95°
2026-05-05 18:11 18.23015 -68.19966 16968 ft 270 kts 95°
2026-05-05 18:11 18.22882 -68.17997 16974 ft 270 kts 95°
2026-05-05 18:11 18.22750 -68.16027 16971 ft 270 kts 95°
2026-05-05 18:12 18.22617 -68.14064 16973 ft 269 kts 95°
2026-05-05 18:12 18.22487 -68.12099 16980 ft 269 kts 95°
2026-05-05 18:12 18.22353 -68.10136 16984 ft 269 kts 95°
2026-05-05 18:12 18.22221 -68.08175 16982 ft 269 kts 95°
2026-05-05 18:13 18.22089 -68.06234 16981 ft 269 kts 95°
2026-05-05 18:13 18.21957 -68.04272 16981 ft 269 kts 95°
2026-05-05 18:13 18.21824 -68.02311 16983 ft 269 kts 95°
2026-05-05 18:13 18.21688 -68.00348 16981 ft 269 kts 95°
2026-05-05 18:14 18.21620 -67.98383 16971 ft 269 kts 89°
2026-05-05 18:14 18.21714 -67.96421 16983 ft 268 kts 86°
2026-05-05 18:14 18.21837 -67.94464 16984 ft 268 kts 87°
2026-05-05 18:14 18.21949 -67.92506 16982 ft 268 kts 88°
2026-05-05 18:15 18.22027 -67.90545 16982 ft 269 kts 88°
2026-05-05 18:15 18.22098 -67.88579 16982 ft 269 kts 89°
2026-05-05 18:15 18.22166 -67.86610 16982 ft 269 kts 89°
2026-05-05 18:15 18.22231 -67.84644 16982 ft 269 kts 89°
2026-05-05 18:16 18.22301 -67.82676 16976 ft 269 kts 88°
2026-05-05 18:16 18.22368 -67.80707 16982 ft 270 kts 89°
2026-05-05 18:16 18.22435 -67.78738 16981 ft 270 kts 88°
2026-05-05 18:16 18.22505 -67.76767 16982 ft 269 kts 88°
2026-05-05 18:17 18.22570 -67.74825 16967 ft 270 kts 89°
2026-05-05 18:17 18.22637 -67.72853 16982 ft 270 kts 89°
2026-05-05 18:17 18.22704 -67.70884 16984 ft 269 kts 88°
2026-05-05 18:17 18.22770 -67.68918 16982 ft 269 kts 89°
2026-05-05 18:18 18.22835 -67.66955 16982 ft 269 kts 88°
2026-05-05 18:18 18.22902 -67.64989 16977 ft 269 kts 88°
2026-05-05 18:18 18.22968 -67.63022 16982 ft 269 kts 88°
2026-05-05 18:18 18.23034 -67.61051 16981 ft 270 kts 88°
2026-05-05 18:19 18.23099 -67.59081 16982 ft 270 kts 88°
2026-05-05 18:19 18.23165 -67.57110 16982 ft 270 kts 89°
2026-05-05 18:19 18.23230 -67.55139 16982 ft 270 kts 88°
2026-05-05 18:19 18.23296 -67.53169 16982 ft 270 kts 88°
2026-05-05 18:20 18.23364 -67.51195 16983 ft 270 kts 88°
2026-05-05 18:20 18.23434 -67.49223 16985 ft 270 kts 88°
2026-05-05 18:20 18.23528 -67.47249 16990 ft 270 kts 87°
2026-05-05 18:20 18.23654 -67.45280 16990 ft 270 kts 86°
2026-05-05 18:21 18.23782 -67.43338 16988 ft 270 kts 86°
2026-05-05 18:21 18.23910 -67.41366 16988 ft 270 kts 86°
2026-05-05 18:21 18.24041 -67.39397 16990 ft 270 kts 86°
2026-05-05 18:21 18.24170 -67.37432 16989 ft 269 kts 86°
2026-05-05 18:22 18.24298 -67.35465 16988 ft 270 kts 86°
2026-05-05 18:22 18.24428 -67.33496 16988 ft 270 kts 86°
2026-05-05 18:22 18.24555 -67.31518 16989 ft 271 kts 86°
2026-05-05 18:22 18.24684 -67.29542 16989 ft 271 kts 86°
2026-05-05 18:23 18.24812 -67.27566 16989 ft 271 kts 86°
2026-05-05 18:23 18.24939 -67.25587 16989 ft 271 kts 86°
2026-05-05 18:23 18.25070 -67.23610 16989 ft 271 kts 86°
2026-05-05 18:23 18.25197 -67.21631 16989 ft 272 kts 86°
2026-05-05 18:24 18.25324 -67.19650 16989 ft 272 kts 86°
2026-05-05 18:24 18.25453 -67.17668 16990 ft 271 kts 86°
2026-05-05 18:24 18.25579 -67.15690 16991 ft 271 kts 86°
2026-05-05 18:24 18.25867 -67.13740 16991 ft 269 kts 73°
2026-05-05 18:25 18.26454 -67.11874 16991 ft 269 kts 70°
2026-05-05 18:25 18.26873 -67.10649 16989 ft 269 kts 70°
2026-05-05 18:25 18.27687 -67.08156 16989 ft 270 kts 72°
2026-05-05 18:25 18.28241 -67.06266 16989 ft 270 kts 73°
2026-05-05 18:26 18.28780 -67.04369 16989 ft 271 kts 72°
2026-05-05 18:26 18.29328 -67.02471 16990 ft 271 kts 73°
2026-05-05 18:26 18.29867 -67.00596 16989 ft 271 kts 72°
2026-05-05 18:26 18.30415 -66.98698 16989 ft 271 kts 73°
2026-05-05 18:27 18.30961 -66.96797 16990 ft 271 kts 72°
2026-05-05 18:27 18.31509 -66.94898 16990 ft 271 kts 72°
2026-05-05 18:27 18.32056 -66.92996 16989 ft 271 kts 72°
2026-05-05 18:27 18.32602 -66.91094 16982 ft 272 kts 72°
2026-05-05 18:28 18.33696 -66.87291 16980 ft 271 kts 72°
2026-05-05 18:28 18.34242 -66.85388 16984 ft 271 kts 72°
2026-05-05 18:28 18.34786 -66.83491 16976 ft 271 kts 72°
2026-05-05 18:29 18.35332 -66.81593 16981 ft 271 kts 72°
2026-05-05 18:29 18.35878 -66.79693 16976 ft 272 kts 72°
2026-05-05 18:29 18.36424 -66.77788 16968 ft 272 kts 72°
2026-05-05 18:29 18.36969 -66.75886 16984 ft 272 kts 73°
2026-05-05 18:30 18.37516 -66.73975 16982 ft 272 kts 72°
2026-05-05 18:30 18.38063 -66.72069 16963 ft 272 kts 72°
2026-05-05 18:30 18.38607 -66.70168 16982 ft 271 kts 72°
2026-05-05 18:30 18.39152 -66.68268 16982 ft 271 kts 72°
2026-05-05 18:31 18.39694 -66.66364 16972 ft 271 kts 72°
2026-05-05 18:31 18.40238 -66.64463 16980 ft 271 kts 72°
2026-05-05 18:31 18.40782 -66.62563 16982 ft 271 kts 72°
2026-05-05 18:31 18.41326 -66.60662 16983 ft 271 kts 72°
2026-05-05 18:32 18.41868 -66.58761 16980 ft 271 kts 72°
2026-05-05 18:32 18.42410 -66.56860 16982 ft 271 kts 72°
2026-05-05 18:32 18.42954 -66.54962 16984 ft 271 kts 72°
2026-05-05 18:32 18.43488 -66.53086 16984 ft 271 kts 72°
2026-05-05 18:33 18.44036 -66.51163 16977 ft 271 kts 72°
2026-05-05 18:33 18.44571 -66.49290 16972 ft 271 kts 73°
2026-05-05 18:33 18.45113 -66.47389 16983 ft 270 kts 72°
2026-05-05 18:33 18.45654 -66.45493 16970 ft 270 kts 72°
2026-05-05 18:34 18.46194 -66.43598 16983 ft 270 kts 72°
2026-05-05 18:34 18.46735 -66.41704 16979 ft 269 kts 73°
2026-05-05 18:34 18.46951 -66.39771 16987 ft 268 kts 92°
2026-05-05 18:34 18.46787 -66.37814 16972 ft 269 kts 96°
2026-05-05 18:35 18.46585 -66.35853 16983 ft 269 kts 96°
2026-05-05 18:35 18.46417 -66.33890 16985 ft 270 kts 94°
2026-05-05 18:35 18.46307 -66.31915 16981 ft 270 kts 92°
2026-05-05 18:35 18.46217 -66.29940 16982 ft 270 kts 93°
2026-05-05 18:36 18.46117 -66.27962 16967 ft 271 kts 93°
2026-05-05 18:36 18.46017 -66.25983 16981 ft 271 kts 93°
2026-05-05 18:36 18.45914 -66.24003 16970 ft 271 kts 93°
2026-05-05 18:36 18.45810 -66.22022 16974 ft 271 kts 93°
2026-05-05 18:37 18.45709 -66.20043 16981 ft 271 kts 93°
2026-05-05 18:37 18.45607 -66.18060 16984 ft 271 kts 93°
2026-05-05 18:37 18.45502 -66.16084 16981 ft 271 kts 93°
2026-05-05 18:37 18.45399 -66.14104 16984 ft 271 kts 93°
2026-05-05 18:38 18.45297 -66.12126 16981 ft 270 kts 93°
2026-05-05 18:38 18.45192 -66.10150 16981 ft 270 kts 93°
2026-05-05 18:38 18.45087 -66.08172 16985 ft 270 kts 93°
2026-05-05 18:38 18.44984 -66.06196 16983 ft 270 kts 93°
2026-05-05 18:39 18.44880 -66.04218 16983 ft 271 kts 93°
2026-05-05 18:39 18.44776 -66.02263 16967 ft 271 kts 93°
2026-05-05 18:39 18.44667 -66.00279 16982 ft 271 kts 93°
2026-05-05 18:39 18.44574 -65.98297 16981 ft 271 kts 90°
2026-05-05 18:40 18.44686 -65.96321 16982 ft 269 kts 83°
2026-05-05 18:40 18.44887 -65.94362 16981 ft 269 kts 83°
2026-05-05 18:40 18.45079 -65.92403 16982 ft 269 kts 84°
2026-05-05 18:40 18.45229 -65.90436 16981 ft 269 kts 85°
2026-05-05 18:41 18.45357 -65.88468 16977 ft 270 kts 85°
2026-05-05 18:41 18.45487 -65.86498 16982 ft 270 kts 85°
2026-05-05 18:41 18.45618 -65.84525 16986 ft 270 kts 85°
2026-05-05 18:41 18.45749 -65.82557 16988 ft 269 kts 85°
2026-05-05 18:42 18.45878 -65.80589 16988 ft 269 kts 85°
2026-05-05 18:42 18.46005 -65.78622 16988 ft 270 kts 85°
2026-05-05 18:42 18.46135 -65.76651 16990 ft 269 kts 85°
2026-05-05 18:42 18.46265 -65.74685 16989 ft 269 kts 85°
2026-05-05 18:43 18.46393 -65.72718 16993 ft 269 kts 85°
2026-05-05 18:43 18.46522 -65.70750 16996 ft 269 kts 85°
2026-05-05 18:43 18.46651 -65.68776 16997 ft 270 kts 85°
2026-05-05 18:43 18.46782 -65.66805 16998 ft 270 kts 85°
2026-05-05 18:44 18.46912 -65.64833 16998 ft 270 kts 85°
2026-05-05 18:44 18.47041 -65.62861 16998 ft 270 kts 85°
2026-05-05 18:44 18.47158 -65.60913 17002 ft 270 kts 85°
2026-05-05 18:44 18.47283 -65.58942 17005 ft 270 kts 85°
2026-05-05 18:45 18.47413 -65.56972 17005 ft 270 kts 85°
2026-05-05 18:45 18.47542 -65.54996 17006 ft 270 kts 85°
2026-05-05 18:45 18.47671 -65.53020 17008 ft 270 kts 85°
2026-05-05 18:45 18.47796 -65.51044 17008 ft 271 kts 85°
2026-05-05 18:46 18.47924 -65.49068 17006 ft 271 kts 85°
2026-05-05 18:46 18.48055 -65.47090 17005 ft 271 kts 85°
2026-05-05 18:46 18.48186 -65.45106 17001 ft 271 kts 85°
2026-05-05 18:46 18.48303 -65.43122 17000 ft 272 kts 85°
2026-05-05 18:47 18.48427 -65.41137 16999 ft 272 kts 85°
2026-05-05 18:47 18.48555 -65.39153 16998 ft 272 kts 85°
2026-05-05 18:47 18.48683 -65.37164 16998 ft 272 kts 85°
2026-05-05 18:47 18.48810 -65.35179 16998 ft 272 kts 85°
2026-05-05 18:48 18.48935 -65.33189 16998 ft 272 kts 85°
2026-05-05 18:48 18.49062 -65.31202 16998 ft 272 kts 85°
2026-05-05 18:48 18.49190 -65.29215 16999 ft 271 kts 85°
2026-05-05 18:48 18.48992 -65.27274 17000 ft 269 kts 110°
2026-05-05 18:49 18.48165 -65.25502 16998 ft 271 kts 121°
2026-05-05 18:49 18.47182 -65.23808 16998 ft 272 kts 122°
2026-05-05 18:49 18.46179 -65.22119 16998 ft 272 kts 122°
2026-05-05 18:49 18.45205 -65.20408 16994 ft 273 kts 120°
2026-05-05 18:50 18.44267 -65.18670 16991 ft 273 kts 119°
2026-05-05 18:50 18.43336 -65.16925 16990 ft 274 kts 120°
2026-05-05 18:50 18.42411 -65.15205 16991 ft 273 kts 120°
2026-05-05 18:50 18.41475 -65.13462 16990 ft 274 kts 120°
2026-05-05 18:51 18.40535 -65.11717 16988 ft 274 kts 120°
2026-05-05 18:51 18.39597 -65.09974 16989 ft 274 kts 120°
2026-05-05 18:51 18.38659 -65.08230 16990 ft 274 kts 120°
2026-05-05 18:51 18.37719 -65.06484 16989 ft 274 kts 120°
2026-05-05 18:52 18.36779 -65.04740 16988 ft 274 kts 120°
2026-05-05 18:52 18.35961 -65.02947 16975 ft 264 kts 104°
2026-05-05 18:52 18.35852 -65.01136 16602 ft 241 kts 86°
2026-05-05 18:52 18.36038 -64.99406 16047 ft 235 kts 78°
2026-05-05 18:53 18.36370 -64.97741 15437 ft 232 kts 76°
2026-05-05 18:53 18.36738 -64.96081 14754 ft 233 kts 76°
2026-05-05 18:53 18.36982 -64.94980 14311 ft 233 kts 76°
2026-05-05 18:53 18.37324 -64.93316 13634 ft 231 kts 78°
2026-05-05 18:54 18.37735 -64.91129 12737 ft 229 kts 79°
2026-05-05 18:54 18.38039 -64.89492 12061 ft 227 kts 79°
2026-05-05 18:54 18.38242 -64.88393 11601 ft 226 kts 79°
2026-05-05 18:54 18.38543 -64.86781 10928 ft 223 kts 79°
2026-05-05 18:55 18.38936 -64.84673 10031 ft 220 kts 80°
2026-05-05 18:55 18.39134 -64.83605 9571 ft 219 kts 81°
2026-05-05 18:55 18.39424 -64.82044 8904 ft 216 kts 81°
2026-05-05 18:55 18.39703 -64.80525 8245 ft 212 kts 81°
2026-05-05 18:56 18.39990 -64.78985 7570 ft 211 kts 81°
2026-05-05 18:56 18.40273 -64.77480 6885 ft 209 kts 81°
2026-05-05 18:56 18.40550 -64.75990 6197 ft 206 kts 81°
2026-05-05 18:56 18.40817 -64.74548 5667 ft 199 kts 81°
2026-05-05 18:57 18.41078 -64.73142 5191 ft 193 kts 81°
2026-05-05 18:57 18.41330 -64.71777 4679 ft 188 kts 81°
2026-05-05 18:57 18.41581 -64.70438 4181 ft 184 kts 82°
2026-05-05 18:57 18.41636 -64.69127 3638 ft 177 kts 96°
2026-05-05 18:58 18.41507 -64.67853 3107 ft 171 kts 99°
2026-05-05 18:58 18.41353 -64.66632 2587 ft 165 kts 99°
2026-05-05 18:58 18.41205 -64.65535 2371 ft 144 kts 101°
2026-05-05 18:58 18.41030 -64.64511 2267 ft 141 kts 101°
2026-05-05 18:59 18.40856 -64.63511 2207 ft 141 kts 103°
2026-05-05 18:59 18.40710 -64.62504 2214 ft 135 kts 86°
2026-05-05 18:59 18.40964 -64.61523 2136 ft 144 kts 75°
2026-05-05 18:59 18.41298 -64.60534 1924 ft 145 kts 73°
2026-05-05 19:00 18.41644 -64.59554 1702 ft 136 kts 69°
2026-05-05 19:00 18.42093 -64.58710 1420 ft 135 kts 62°
2026-05-05 19:00 18.42559 -64.57856 1120 ft 133 kts 62°
2026-05-05 19:00 18.42991 -64.57034 831 ft 127 kts 64°
2026-05-05 19:01 18.43453 -64.56223 503 ft 128 kts 64°
2026-05-05 19:01 18.43883 -64.55415 242 ft 126 kts 63°
2026-05-05 19:01 18.44311 -64.54621 45 ft 120 kts 62°
2026-05-05 19:01 18.44651 -64.53980 11 ft 40 kts 56°
2026-05-05 19:02 18.44740 -64.53815 11 ft 21 kts 59°
2026-05-05 19:02 18.44801 -64.53706 14 ft 15 kts 59°
2026-05-05 19:02 18.44846 -64.53625 15 ft 11 kts 61°
2026-05-05 19:02 18.44826 -64.53565 15 ft 9 kts 147°
2026-05-05 19:03 18.44775 -64.53578 16 ft 9 kts 244°
2026-05-05 19:03 18.44739 -64.53645 16 ft 12 kts 239°
2026-05-05 19:03 18.44693 -64.53727 12 ft 14 kts 239°
2026-05-05 19:03 18.44643 -64.53746 11 ft 7 kts 143°
2026-05-05 19:04 18.44606 -64.53713 12 ft 7 kts 125°
2026-05-05 19:04 18.44595 -64.53692 12 ft 0 kts 114°